Temp
23 23 23 23 23 23 23 22 23 22 22 22 21 21 20 20 20 19 19 19 18 18 17 17 17 16 16 16 15 14 14 14 13 12 11 11 10 9 9 9 9 9 8
23 23 23 23 23 24 23 23 23 23 22 22 22 21 20 20 19 19 19 19 19 18 17 17 17 17 16 16 15 15 14 13 12 11 11 10 9 9 9 9 9 8 8
24 23 23 23 23 24 24 23 23 23 23 22 22 21 20 20 19 19 20 19 19 18 17 17 17 16 16 15 15 14 13 13 12 11 11 10 9 9 9 9 9 9 8
24 24 23 23 23 23 24 23 23 23 23 23 22 21 20 20 19 19 19 19 19 18 17 17 17 16 16 15 15 13 12 12 12 12 11 10 9 9 9 9 9 9 8
25 24 23 24 24 23 23 23 23 23 23 23 22 21 20 20 19 19 20 19 19 18 18 17 17 16 15 15 14 12 12 12 12 11 11 10 9 9 9 9 8 8 8
26 25 24 24 24 24 23 23 22 23 23 23 22 22 21 20 19 19 20 19 19 18 18 18 17 15 14 13 13 12 11 11 11 11 11 10 10 10 9 8 8 8 7
26 25 25 25 24 24 23 23 22 23 23 23 22 22 21 20 19 19 20 19 18 17 18 17 17 15 14 13 13 12 11 11 10 10 10 9 9 10 9 8 8 7 7
26 26 26 25 25 24 24 23 23 23 23 23 22 22 21 21 20 19 19 19 18 17 17 17 16 16 14 12 12 12 11 11 10 10 9 9 9 9 9 8 7 7 7
27 26 26 26 25 24 24 24 23 23 23 23 22 22 21 21 20 19 19 18 18 17 17 17 16 16 15 13 12 12 12 11 10 10 9 9 9 9 8 8 9 7 7
26 27 26 26 26 25 24 24 24 24 24 23 22 21 21 20 20 19 19 18 18 18 17 17 16 15 15 14 12 12 12 11 10 10 9 9 9 9 8 8 8 9 8
26 26 26 26 26 26 25 24 24 24 23 22 21 21 21 20 20 19 18 18 18 18 17 17 17 16 14 14 13 12 12 11 11 10 10 9 9 9 8 8 9 9 8
25 25 26 25 26 25 25 24 24 23 23 23 22 21 20 20 19 19 19 18 17 17 17 17 17 16 15 14 13 12 12 12 11 10 10 9 9 8 8 8 8 9 9
24 24 25 25 24 25 25 24 23 23 22 23 22 21 20 19 19 19 19 18 17 17 16 16 16 16 15 14 13 13 12 12 12 11 10 10 9 8 8 7 8 8 8
24 24 24 24 24 24 24 23 23 23 22 22 22 22 21 19 19 18 19 18 17 16 16 16 16 15 15 14 13 13 12 12 12 12 11 10 9 9 8 8 8 8 8
23 23 23 23 23 23 23 22 22 22 22 22 22 22 22 20 20 19 18 18 17 16 16 17 17 16 15 15 14 13 13 12 12 12 11 10 10 9 9 8 8 8 8
21 22 22 23 22 21 22 22 22 21 21 21 20 21 21 21 20 20 19 18 17 17 17 17 17 16 16 15 14 14 13 12 12 12 12 10 10 10 9 9 9 9 8
21 22 22 21 22 21 21 21 21 21 21 20 20 20 20 20 21 19 18 18 17 16 17 16 16 16 16 15 14 14 14 13 12 12 12 11 10 10 10 9 9 9 9
19 20 20 21 21 20 20 21 20 20 20 20 20 20 20 20 20 19 19 18 17 16 17 17 16 16 16 16 15 14 14 13 12 12 12 12 11 10 10 10 9 9 10
17 18 18 18 21 21 20 20 20 19 19 18 18 17 18 19 19 19 19 18 18 18 18 17 17 15 15 16 15 14 14 14 13 13 12 12 12 11 11 11 10 10 10
16 16 17 18 22 18 17 20 20 18 18 18 20 20 16 17 18 18 18 18 18 18 18 18 17 15 15 15 15 15 14 14 13 13 13 12 12 12 12 11 11 10 10
16 16 16 17 17 16 16 16 17 17 19 21 22 21 20 18 17 18 20 20 18 17 18 17 16 16 16 16 15 15 15 14 14 14 13 13 12 13 12 11 11 11 11
16 16 15 16 17 17 15 15 15 17 19 19 19 18 19 20 17 17 20 18 17 17 16 16 16 16 16 16 16 16 15 15 14 14 14 13 13 12 13 12 12 11 11
14 15 14 15 16 15 15 14 15 15 17 19 18 18 15 15 16 15 17 16 16 16 15 15 16 15 15 16 16 16 16 16 15 14 14 14 13 13 12 13 13 12 12
13 14 14 14 14 15 14 14 15 15 15 15 14 15 17 16 15 15 16 15 15 16 16 15 14 14 14 14 15 16 16 16 15 15 14 14 14 13 13 13 13 13 12
11 12 12 13 13 12 12 13 13 14 14 14 14 14 14 15 15 15 15 15 16 16 16 15 14 14 13 13 14 15 15 15 15 15 14 14 14 14 14 13 13 13 12
10 11 10 10 10 11 12 13 13 13 13 14 14 14 14 14 14 14 14 15 15 15 15 15 15 16 15 14 15 14 15 14 14 13 14 14 14 13 13 13 13 12 12
Height
1526 1528 1531 1534 1537 1541 1543 1545 1547 1548 1550 1550 1551 1550 1550 1549 1547 1546 1545 1542 1539 1537 1535 1533 1531 1530 1528 1526 1524 1522 1520 1519 1518 1518 1518 1516 1514 1513 1512 1511 1510 1508 1507
1523 1526 1528 1531 1535 1537 1540 1543 1545 1546 1548 1549 1549 1549 1549 1548 1547 1546 1544 1542 1539 1538 1536 1534 1533 1531 1530 1527 1524 1522 1521 1519 1519 1518 1517 1515 1514 1513 1512 1510 1509 1509 1508
1518 1522 1525 1528 1531 1534 1537 1540 1542 1544 1545 1547 1547 1547 1548 1547 1546 1545 1544 1541 1540 1538 1536 1535 1533 1532 1530 1528 1525 1523 1522 1520 1518 1516 1515 1514 1513 1512 1511 1510 1508 1507 1506
1513 1517 1522 1524 1528 1531 1534 1537 1539 1541 1543 1545 1545 1545 1545 1545 1545 1544 1543 1541 1540 1539 1537 1536 1534 1533 1531 1530 1528 1527 1525 1523 1520 1518 1516 1515 1514 1513 1511 1510 1508 1506 1504
1508 1512 1516 1521 1525 1529 1532 1534 1537 1539 1540 1542 1543 1543 1543 1544 1544 1545 1543 1542 1540 1540 1538 1537 1536 1535 1533 1532 1532 1530 1529 1526 1524 1521 1518 1516 1514 1512 1509 1506 1504 1503 1502
1505 1508 1513 1517 1521 1524 1528 1531 1533 1536 1537 1539 1541 1541 1542 1542 1543 1544 1542 1542 1541 1541 1540 1539 1538 1538 1537 1536 1534 1533 1532 1530 1527 1524 1520 1517 1514 1511 1507 1505 1503 1503 1500
1501 1506 1510 1514 1518 1521 1525 1528 1530 1532 1534 1536 1538 1539 1540 1541 1542 1542 1542 1542 1541 1541 1541 1540 1540 1540 1540 1539 1538 1537 1535 1532 1530 1527 1523 1519 1516 1513 1509 1505 1504 1503 1500
1496 1502 1506 1511 1514 1518 1521 1524 1527 1529 1531 1533 1536 1537 1538 1539 1540 1542 1541 1541 1541 1541 1542 1542 1542 1541 1541 1541 1541 1540 1537 1534 1532 1529 1526 1524 1521 1516 1511 1506 1503 1502 1501
1491 1496 1502 1507 1511 1515 1518 1521 1523 1525 1527 1530 1533 1535 1537 1538 1539 1541 1541 1541 1541 1541 1541 1541 1542 1542 1542 1542 1543 1542 1540 1536 1535 1533 1530 1527 1524 1519 1514 1510 1506 1504 1503
1485 1491 1497 1503 1507 1511 1514 1517 1519 1521 1524 1527 1530 1533 1535 1536 1538 1539 1540 1540 1541 1541 1541 1541 1541 1542 1542 1542 1543 1542 1541 1539 1537 1536 1534 1531 1527 1523 1519 1514 1510 1507 1504
1482 1486 1493 1498 1502 1506 1510 1514 1516 1518 1521 1524 1527 1529 1532 1534 1536 1538 1539 1539 1540 1540 1541 1542 1542 1542 1542 1543 1543 1543 1542 1541 1539 1538 1536 1534 1531 1527 1523 1518 1515 1511 1507
1480 1483 1487 1493 1498 1501 1505 1509 1512 1515 1518 1520 1523 1526 1528 1530 1533 1535 1537 1538 1539 1540 1541 1542 1543 1543 1544 1543 1543 1544 1544 1542 1541 1540 1538 1536 1534 1531 1527 1523 1519 1515 1512
1478 1481 1484 1488 1492 1497 1501 1504 1508 1512 1514 1516 1518 1521 1525 1528 1530 1532 1535 1537 1537 1538 1540 1542 1542 1543 1544 1544 1545 1545 1546 1545 1543 1541 1540 1539 1536 1535 1532 1529 1526 1523 1520
1477 1482 1482 1482 1487 1492 1497 1500 1504 1507 1509 1511 1513 1515 1519 1522 1525 1528 1531 1533 1536 1539 1540 1540 1542 1544 1545 1546 1546 1546 1546 1546 1545 1544 1542 1541 1539 1537 1535 1534 1531 1529 1526
1471 1475 1477 1479 1484 1489 1492 1495 1498 1501 1503 1505 1507 1508 1511 1515 1518 1523 1526 1529 1532 1535 1539 1540 1540 1542 1545 1546 1547 1547 1547 1548 1547 1546 1544 1543 1542 1540 1539 1538 1536 1535 1533
1469 1473 1475 1478 1482 1485 1486 1489 1491 1495 1497 1501 1504 1506 1510 1514 1518 1522 1525 1527 1529 1532 1535 1538 1539 1541 1545 1547 1547 1548 1548 1548 1548 1548 1547 1546 1545 1544 1542 1541 1541 1540 1539
1472 1472 1474 1479 1477 1482 1483 1485 1488 1491 1493 1497 1500 1503 1508 1511 1514 1519 1523 1526 1527 1529 1532 1537 1541 1541 1543 1546 1548 1548 1549 1549 1548 1549 1549 1547 1547 1547 1545 1544 1544 1544 1544
1471 1473 1475 1475 1474 1479 1480 1482 1485 1488 1491 1498 1499 1500 1504 1507 1511 1515 1517 1522 1524 1528 1530 1532 1538 1542 1542 1543 1546 1548 1549 1549 1549 1549 1551 1550 1548 1549 1549 1548 1547 1548 1548
1474 1473 1473 1471 1468 1474 1477 1475 1477 1483 1486 1485 1489 1495 1502 1504 1506 1510 1512 1518 1523 1524 1526 1530 1534 1539 1542 1542 1544 1547 1548 1549 1549 1549 1550 1551 1550 1550 1550 1551 1550 1550 1551
1475 1472 1471 1466 1457 1478 1477 1472 1468 1473 1483 1482 1483 1480 1493 1508 1505 1510 1509 1514 1520 1526 1527 1528 1531 1536 1540 1541 1541 1545 1547 1548 1549 1549 1549 1551 1552 1550 1551 1552 1553 1552 1553
1476 1473 1473 1474 1472 1479 1480 1472 1473 1479 1464 1475 1474 1479 1498 1506 1503 1509 1506 1511 1518 1523 1527 1529 1530 1532 1536 1539 1539 1541 1545 1547 1548 1549 1549 1550 1551 1551 1551 1553 1554 1554 1555
1475 1473 1474 1475 1474 1481 1479 1475 1479 1480 1467 1471 1472 1473 1474 1475 1495 1505 1505 1510 1515 1520 1525 1528 1528 1531 1534 1536 1538 1539 1541 1543 1546 1547 1548 1549 1550 1551 1551 1552 1554 1555 1557
1474 1473 1475 1473 1471 1480 1475 1476 1478 1474 1469 1471 1475 1473 1476 1478 1485 1497 1499 1504 1509 1515 1519 1523 1526 1529 1532 1534 1536 1538 1540 1542 1543 1545 1546 1547 1548 1549 1550 1551 1553 1554 1556
1477 1475 1475 1476 1477 1476 1475 1477 1476 1474 1472 1474 1477 1477 1476 1485 1486 1489 1494 1502 1506 1510 1514 1519 1522 1525 1527 1530 1533 1534 1537 1539 1542 1543 1543 1545 1546 1546 1548 1549 1550 1553 1555
1482 1480 1479 1478 1478 1478 1478 1478 1480 1481 1480 1483 1485 1484 1485 1481 1489 1493 1495 1498 1501 1506 1511 1515 1517 1519 1522 1524 1526 1528 1532 1535 1537 1540 1540 1541 1543 1544 1545 1547 1548 1549 1552
1489 1486 1484 1483 1483 1483 1484 1484 1484 1485 1486 1486 1488 1488 1488 1489 1490 1494 1496 1500 1501 1503 1508 1513 1515 1515 1519 1521 1522 1524 1526 1530 1532 1536 1540 1539 1539 1540 1541 1543 1546 1547 1547
Wind_Speed
32 22 21 25 25 24 21 18 15 13 12 11 11 12 13 11 10 9 10 14 10 10 10 10 10 11 10 10 11 10 10 8 6 4 7 10 10 5 3 3 4 5 7
32 26 20 20 24 23 23 21 17 17 15 11 10 11 12 9 9 8 9 11 11 10 10 9 9 9 8 10 11 11 11 11 7 8 9 11 6 2 2 4 5 4 5
30 29 24 18 21 21 21 20 17 16 14 13 13 12 10 10 8 7 9 11 11 10 9 8 9 9 10 12 13 12 12 12 12 11 7 4 2 1 1 4 4 3 4
31 29 29 21 19 18 19 19 18 16 15 14 12 11 10 9 8 6 9 8 9 9 7 7 8 8 11 12 11 14 14 13 15 15 10 6 2 3 5 8 7 4 6
30 29 29 23 20 18 17 18 19 18 15 13 12 11 10 10 7 5 9 8 8 7 6 5 6 7 9 11 12 15 15 16 18 19 18 14 10 7 8 9 7 4 5
29 28 24 22 23 20 18 17 17 19 16 15 13 11 11 10 9 7 8 7 7 6 5 4 5 7 9 11 13 15 16 18 21 22 23 22 20 16 12 9 5 5 6
28 28 25 23 23 22 20 20 17 18 17 16 14 12 11 11 9 7 7 5 6 4 2 3 4 5 7 8 11 13 13 17 21 23 25 29 25 21 16 9 7 11 11
33 30 24 21 22 22 20 21 20 18 18 17 14 13 12 10 9 6 8 5 4 3 1 2 3 3 5 6 7 10 13 12 17 20 23 26 25 22 19 13 7 7 9
35 34 27 24 20 22 21 20 18 19 20 18 15 14 14 12 9 7 8 6 5 5 4 2 2 2 3 7 5 8 11 11 12 14 18 22 25 27 26 18 15 3 9
34 31 31 26 23 24 20 17 15 16 19 18 16 15 13 13 10 9 8 8 8 8 8 6 5 3 2 5 6 7 9 9 9 11 13 17 22 25 25 22 21 21 15
31 31 31 30 25 21 20 19 16 14 18 18 17 16 14 14 12 11 10 8 8 8 9 7 5 5 5 4 6 6 7 8 8 10 10 14 20 22 25 25 21 21 20
29 28 25 28 27 24 21 21 19 17 17 18 18 18 16 15 15 12 11 7 7 8 8 7 6 5 6 6 3 4 4 7 7 8 10 10 16 19 23 25 23 21 25
16 20 22 21 24 25 23 22 22 21 21 21 22 21 19 18 18 15 14 7 9 9 8 7 7 6 6 7 5 2 3 4 6 7 9 8 11 15 17 20 21 22 23
12 14 12 10 12 16 19 21 22 23 24 25 25 26 23 21 20 20 18 15 13 11 11 11 10 9 8 9 6 3 3 3 4 6 8 8 11 12 11 14 17 22 27
7 9 12 11 11 13 17 19 22 23 24 26 28 29 27 25 25 21 21 20 16 14 12 13 13 12 11 11 8 6 4 3 2 6 8 10 12 14 10 13 14 19 26
4 6 10 15 14 16 18 19 20 22 22 23 24 25 24 21 20 17 18 20 18 16 12 13 11 12 12 12 9 7 5 4 2 2 5 8 10 13 10 12 13 16 21
3 7 10 14 12 15 18 20 21 21 22 21 21 22 19 15 14 22 16 19 21 18 15 12 12 11 10 13 11 8 6 4 3 4 5 6 8 11 11 10 12 15 18
3 7 9 8 9 12 16 17 21 24 22 21 20 19 17 14 13 15 22 15 26 22 17 13 12 12 11 13 13 10 9 7 6 6 5 6 7 7 10 8 12 13 16
2 3 5 1 6 12 19 17 14 17 19 20 24 10 16 16 16 16 12 19 27 23 16 13 13 12 12 12 13 12 10 7 8 7 6 6 6 7 6 9 9 11 12
3 2 1 4 4 8 6 13 11 18 17 13 13 13 25 16 13 16 16 19 25 20 14 12 11 12 13 13 13 15 12 12 11 11 8 6 5 4 4 7 9 11 13
13 14 7 8 11 5 4 10 17 21 6 8 15 25 28 23 21 21 15 17 24 23 20 13 11 12 13 14 14 15 13 12 12 10 11 10 7 6 3 6 9 11 13
7 12 9 4 5 5 10 7 8 12 11 10 20 35 32 27 23 29 19 19 19 20 18 15 13 15 15 13 12 13 13 13 15 14 12 12 11 11 10 9 10 12 13
3 1 3 3 3 12 12 20 18 18 13 9 18 25 18 15 20 24 21 19 15 15 13 15 16 16 17 13 15 16 12 12 13 15 15 14 14 14 15 12 13 14 14
3 4 3 4 9 6 6 17 14 17 20 18 16 15 19 18 14 16 17 17 15 13 12 16 19 19 19 19 17 16 18 8 12 17 16 15 15 16 17 16 14 14 14
12 12 12 12 8 10 12 17 15 17 16 11 12 16 17 20 16 16 16 14 13 12 15 17 19 19 19 19 21 14 19 17 13 19 21 19 18 19 20 18 16 15 15
14 14 16 19 20 19 18 16 13 12 10 10 8 9 9 9 13 12 11 11 12 12 12 13 12 12 20 24 21 19 15 20 17 18 23 24 22 22 24 23 21 21 18
Wind_Direction
226 225 229 226 224 227 227 229 239 250 267 273 288 308 321 322 340 349 354 351 347 5 9 9 7 15 13 20 18 21 25 23 359 302 288 301 319 323 338 5 34 31 29
232 224 227 227 227 229 235 237 245 255 256 259 277 296 309 309 333 349 341 346 348 358 3 14 14 21 21 30 25 25 24 19 357 320 300 297 304 318 22 355 332 341 16
229 229 223 223 225 226 234 236 238 246 252 261 275 285 290 299 322 339 340 324 348 345 0 13 20 28 28 32 24 24 25 16 8 350 338 338 305 262 320 328 341 347 328
229 228 228 223 227 224 231 235 232 239 252 261 267 273 282 294 311 330 320 324 337 337 356 10 23 35 40 41 38 46 36 34 37 38 40 35 14 318 322 333 319 291 293
231 230 228 225 228 228 231 235 236 237 244 252 256 267 276 284 291 308 321 323 323 335 350 14 34 47 51 60 61 61 54 52 49 48 46 35 18 340 324 334 333 293 276
229 227 219 217 224 223 226 234 239 236 236 242 252 266 271 273 270 291 311 324 324 328 348 23 53 65 63 73 76 71 62 55 50 45 43 35 27 16 5 2 6 356 329
237 232 228 224 227 229 229 233 238 235 231 237 248 258 259 260 262 274 296 312 303 310 352 33 64 86 79 79 80 70 63 54 48 42 41 34 29 23 16 7 355 1 18
241 235 225 225 228 230 228 233 234 233 227 231 243 249 249 252 253 253 276 276 276 265 205 67 61 81 94 94 78 71 57 51 48 42 40 38 32 26 18 5 347 355 25
243 236 234 227 220 231 226 226 231 229 224 226 236 241 243 248 251 242 263 258 247 232 209 178 130 109 95 116 81 64 58 46 42 44 38 35 31 28 35 46 47 61 48
239 238 238 232 231 234 226 222 229 228 223 224 232 237 241 247 251 244 250 253 240 230 219 203 171 157 143 122 94 60 57 52 44 42 33 32 30 28 36 42 49 60 57
242 242 241 239 232 228 230 229 228 228 224 225 230 234 238 242 244 238 244 253 241 239 231 224 199 174 176 157 109 71 55 52 43 41 28 30 31 28 34 38 44 48 54
232 236 237 237 235 232 232 230 230 227 226 225 229 231 233 236 231 235 239 248 235 243 237 221 211 200 189 187 125 80 47 49 44 36 32 31 37 33 33 37 40 56 59
223 222 227 234 237 241 238 234 232 234 231 228 229 231 233 226 229 234 235 234 223 225 220 223 216 210 196 195 176 134 68 43 45 36 37 40 47 48 32 39 48 63 72
202 221 215 214 235 241 238 237 238 238 238 234 232 235 231 223 227 227 227 220 212 211 205 208 211 209 206 203 198 196 157 115 64 52 54 52 52 39 44 50 61 70 82
202 203 224 213 223 241 239 241 241 243 244 244 240 239 236 226 227 229 224 224 221 210 211 209 211 212 211 205 210 201 179 154 74 61 61 58 54 47 62 63 76 83 89
214 211 223 231 226 239 241 240 242 246 248 249 250 252 255 251 234 235 233 224 223 212 208 218 215 219 219 217 216 218 195 168 179 91 65 63 52 52 64 77 84 92 101
286 238 232 234 228 246 248 248 249 247 247 249 249 256 255 250 242 227 230 235 219 209 213 218 228 227 223 221 225 233 209 176 168 172 98 72 56 55 58 86 92 107 103
342 255 243 238 235 267 256 248 253 253 254 250 238 244 245 232 225 233 221 225 212 213 218 218 229 230 227 224 222 225 212 205 192 184 149 91 75 53 67 96 112 106 117
359 309 286 246 27 314 271 241 239 271 255 243 216 234 237 235 230 227 228 235 220 220 222 215 221 230 240 229 222 223 218 213 208 198 184 132 95 67 72 106 117 119 127
12 98 97 73 101 208 236 220 259 249 237 186 181 343 338 291 257 224 205 222 223 222 214 203 209 220 233 231 220 213 213 207 208 212 213 195 142 96 74 104 129 119 132
68 68 88 87 122 150 168 146 169 194 158 206 213 207 214 287 264 238 221 208 215 220 224 221 204 203 213 216 208 207 212 219 219 221 222 221 207 166 164 152 137 137 141
243 258 288 341 71 156 189 186 197 215 195 195 182 187 197 203 258 225 219 198 200 223 235 232 217 206 203 205 209 206 212 218 224 224 224 219 212 195 180 183 164 158 158
0 2 246 271 167 185 146 137 127 109 106 133 202 205 216 239 232 223 218 208 206 216 217 220 226 221 219 214 224 225 223 224 227 229 230 227 215 205 191 183 186 179 179
65 90 108 177 201 219 170 142 116 119 122 111 122 120 162 202 201 208 205 211 207 210 229 226 227 233 240 240 239 238 222 212 224 239 232 232 231 215 207 198 190 191 198
73 79 107 109 109 101 103 144 136 129 130 120 106 118 140 153 170 178 186 187 191 213 231 240 238 230 235 238 231 238 229 221 230 230 233 228 231 232 223 219 209 200 201
65 74 75 80 97 106 109 122 139 130 131 122 119 113 116 124 147 159 168 178 178 187 209 232 255 264 247 242 240 234 228 224 234 234 240 232 229 228 229 230 228 220 215